Flag for USA

Past Weather in Sacramento, California, USA — Yesterday and Last 2 Weeks

Now
86 °F

Sunny.


Feels Like: 84 °F
Forecast: 90 / 60 °F
Wind: 6 mph from Northwest

Location: Sacramento Executive Airport
Current Time: Sep 25, 2020 at 5:20:28 pm
Latest Report: Sep 25, 2020 at 4:53 pm
Visibility: 10 mi
Pressure29.92 "Hg
Humidity: 30%
Dew Point: 51 °F
Location of SacramentoLocation

Past Weather in Sacramento — Graph

°F

Sacramento Temperature Yesterday

Maximum temperature yesterday: 89 °F (at 3:53 pm)
Minimum temperature yesterday: 60 °F (at 6:53 am)
Average temperature yesterday: 72 °F

High & Low Weather Summary for the Past Weeks

 TemperatureHumidityPressure
High90 °F (Sep 12, 4:53 pm)96% (Sep 17, 7:53 am)30.07 "Hg (Sep 17, 7:53 am)
Low56 °F (Sep 11, 6:53 am)19% (Sep 22, 3:53 pm)29.80 "Hg (Sep 20, 5:53 pm)
Average70 °F60%29.94 "Hg
* Reported Sep 10 3:53 pm — Sep 25 3:53 pm, Sacramento. Weather by CustomWeather, © 2020

Note: Actual official high and low records may vary slightly from our data, if they occured in-between our weather recording intervals... More about our weather records

Sacramento Weather History for the Previous 24 Hours

Scroll right to see more
 ConditionsComfort  
Time TempWeatherWind HumidityBarometerVisibility
3:53 pm
Fri, Sep 25
85 °FSunny.3 mph30%29.93 "Hg10 mi
2:53 pm84 °FSunny.5 mph30%29.95 "Hg10 mi
1:53 pm80 °FSunny.No wind38%29.98 "Hg10 mi
12:53 pm78 °FSunny.3 mph42%30.01 "Hg10 mi
11:53 am75 °FSunny.5 mph47%30.02 "Hg10 mi
10:53 am72 °FSunny.6 mph53%30.02 "Hg10 mi
9:53 am67 °FSunny.6 mph66%30.02 "Hg10 mi
8:53 am63 °FSunny.N/A73%30.01 "Hg10 mi
7:53 am59 °FSunny.5 mph78%29.98 "Hg10 mi
6:53 am58 °FClear.5 mph78%29.97 "Hg10 mi
5:53 am59 °FClear.6 mph75%29.96 "Hg10 mi
4:53 am60 °FClear.6 mph72%29.96 "Hg10 mi
3:53 am61 °FClear.7 mph72%29.93 "Hg10 mi
2:53 am61 °FClear.5 mph70%29.93 "Hg10 mi
1:53 am62 °FClear.7 mph65%29.92 "Hg10 mi
12:53 am63 °FClear.8 mph63%29.92 "Hg10 mi
11:53 pm
Thu, Sep 24
64 °FClear.6 mph63%29.92 "Hg10 mi
10:53 pm66 °FClear.7 mph61%29.92 "Hg10 mi
9:53 pm67 °FClear.6 mph57%29.91 "Hg10 mi
8:53 pm69 °FClear.8 mph49%29.90 "Hg10 mi
7:53 pm72 °FClear.12 mph43%29.89 "Hg10 mi
6:53 pm76 °FSunny.12 mph42%29.89 "Hg10 mi
5:53 pm82 °FSunny.12 mph37%29.89 "Hg9 mi
Weather by CustomWeather, © 2020

See weather overview